When you browse on this site, cookies collect data to enhance your experience and personalize the content and advertising you see.
Visit our Privacy Policy to learn more. By continuing to use the site, you agree to this use of cookies and data.
  • In United Kingdom
  • List of Countries
  • For 7 days
  • Water Temperature
  • Weather Map
  • Weather Widgets
  • user-avatar
    Login

    Hourly Weather Buftea

    Today, 29 January, Wednesday

    Time Temperature Precipitation Wind Pressure Humidity
    00:00 +5°C° 0 mm 3 mps 747 mmHg 78%
    01:00 +4°C° 0 mm 3 mps 746 mmHg 79%
    02:00 +4°C° 0 mm 3 mps 746 mmHg 79%
    03:00 +4°C° 0 mm 3 mps 745 mmHg 79%
    04:00 +5°C° 0 mm 3 mps 744 mmHg 79%
    05:00 +5°C° 0 mm 3 mps 744 mmHg 79%
    06:00 +7°C° 0.1 mm 3 mps 744 mmHg 77%
    07:00 +7°C° 0.1 mm 3 mps 744 mmHg 75%
    08:00 +6°C° 0.1 mm 4 mps 744 mmHg 73%
    09:00 +7°C° 0.1 mm 5 mps 744 mmHg 72%
    10:00 +7°C° 0.1 mm 6 mps 744 mmHg 72%
    11:00 +8°C° 0.1 mm 7 mps 745 mmHg 71%
    12:00 +9°C° 0 mm 6 mps 745 mmHg 64%
    13:00 +9°C° 0 mm 5 mps 746 mmHg 57%
    14:00 +11°C° 0 mm 4 mps 746 mmHg 50%
    15:00 +11°C° 0 mm 4 mps 746 mmHg 49%
    16:00 +10°C° 0 mm 3 mps 746 mmHg 47%
    17:00 +9°C° 0 mm 3 mps 746 mmHg 45%
    18:00 +9°C° 0 mm 3 mps 747 mmHg 48%
    19:00 +8°C° 0 mm 3 mps 748 mmHg 51%
    20:00 +7°C° 0 mm 3 mps 748 mmHg 54%
    21:00 +6°C° 0 mm 2 mps 748 mmHg 57%
    22:00 +5°C° 0 mm 2 mps 748 mmHg 61%
    23:00 +5°C° 0 mm 2 mps 748 mmHg 64%

    Tomorrow, 30 January, Thursday

    Time Temperature Precipitation Wind Pressure Humidity
    00:00 +4°C° 0 mm 2 mps 749 mmHg 64%
    01:00 +4°C° 0 mm 2 mps 749 mmHg 65%
    02:00 +4°C° 0 mm 2 mps 749 mmHg 65%
    03:00 +4°C° 0 mm 2 mps 749 mmHg 65%
    04:00 +3°C° 0 mm 2 mps 749 mmHg 65%
    05:00 +3°C° 0 mm 2 mps 749 mmHg 65%
    06:00 +2°C° 0 mm 2 mps 750 mmHg 65%
    07:00 +2°C° 0 mm 2 mps 750 mmHg 65%
    08:00 +2°C° 0 mm 2 mps 751 mmHg 64%
    09:00 +3°C° 0 mm 2 mps 751 mmHg 59%
    10:00 +4°C° 0 mm 2 mps 751 mmHg 53%
    11:00 +6°C° 0 mm 2 mps 751 mmHg 48%
    12:00 +7°C° 0 mm 3 mps 751 mmHg 44%
    13:00 +7°C° 0 mm 4 mps 751 mmHg 40%
    14:00 +8°C° 0 mm 4 mps 751 mmHg 36%
    15:00 +7°C° 0 mm 4 mps 751 mmHg 37%
    16:00 +7°C° 0 mm 4 mps 752 mmHg 38%
    17:00 +8°C° 0 mm 3 mps 752 mmHg 39%
    18:00 +6°C° 0 mm 4 mps 752 mmHg 43%
    19:00 +5°C° 0 mm 4 mps 752 mmHg 47%
    20:00 +4°C° 0 mm 4 mps 753 mmHg 50%
    21:00 +4°C° 0 mm 4 mps 753 mmHg 54%
    22:00 +3°C° 0 mm 3 mps 753 mmHg 57%
    23:00 +2°C° 0 mm 3 mps 753 mmHg 61%

    Day after tomorrow, 31 January, Friday

    Time Temperature Precipitation Wind Pressure Humidity
    00:00 +2°C° 0 mm 3 mps 753 mmHg 62%
    01:00 +2°C° 0 mm 3 mps 753 mmHg 63%
    02:00 +1°C° 0 mm 3 mps 753 mmHg 64%
    03:00 +2°C° 0 mm 2 mps 753 mmHg 63%
    04:00 +2°C° 0 mm 2 mps 752 mmHg 62%
    05:00 +2°C° 0 mm 2 mps 752 mmHg 61%
    06:00 +1°C° 0 mm 3 mps 752 mmHg 63%
    07:00 +1°C° 0 mm 3 mps 751 mmHg 64%
    08:00 +1°C° 0 mm 3 mps 751 mmHg 65%
    09:00 +1°C° 0 mm 4 mps 751 mmHg 62%
    10:00 +4°C° 0 mm 4 mps 750 mmHg 58%
    11:00 +5°C° 0 mm 5 mps 750 mmHg 55%
    12:00 +5°C° 0 mm 6 mps 749 mmHg 53%
    13:00 +6°C° 0 mm 7 mps 749 mmHg 51%
    14:00 +7°C° 0 mm 8 mps 748 mmHg 49%
    15:00 +7°C° 0 mm 8 mps 747 mmHg 49%
    16:00 +8°C° 0 mm 7 mps 747 mmHg 49%
    17:00 +9°C° 0 mm 7 mps 746 mmHg 49%
    18:00 +7°C° 0 mm 8 mps 746 mmHg 55%
    19:00 +7°C° 0 mm 8 mps 746 mmHg 61%
    20:00 +6°C° 0 mm 8 mps 746 mmHg 67%
    21:00 +6°C° 0 mm 7 mps 747 mmHg 71%
    22:00 +7°C° 0 mm 6 mps 747 mmHg 74%
    23:00 +6°C° 0 mm 5 mps 748 mmHg 77%

    1 February, Saturday

    Time Temperature Precipitation Wind Pressure Humidity
    00:00 +6°C° 0 mm 5 mps 748 mmHg 79%
    01:00 +6°C° 0 mm 4 mps 749 mmHg 81%
    02:00 +5°C° 0 mm 4 mps 749 mmHg 82%
    03:00 +5°C° 0 mm 3 mps 750 mmHg 82%
    04:00 +6°C° 0 mm 2 mps 750 mmHg 81%
    05:00 +5°C° 0 mm 2 mps 751 mmHg 80%
    06:00 +6°C° 0 mm 1 mps 751 mmHg 80%
    07:00 +6°C° 0 mm 1 mps 752 mmHg 80%
    08:00 +6°C° 0 mm 1 mps 752 mmHg 80%
    09:00 +7°C° 0 mm 1 mps 752 mmHg 74%
    10:00 +8°C° 0 mm 2 mps 753 mmHg 68%
    11:00 +9°C° 0 mm 2 mps 753 mmHg 62%
    12:00 +10°C° 0 mm 2 mps 753 mmHg 59%
    13:00 +12°C° 0 mm 2 mps 753 mmHg 56%
    14:00 +12°C° 0 mm 2 mps 753 mmHg 53%
    15:00 +12°C° 0 mm 2 mps 753 mmHg 55%
    16:00 +11°C° 0 mm 1 mps 753 mmHg 57%
    17:00 +11°C° 0 mm 1 mps 753 mmHg 59%
    18:00 +10°C° 0 mm 1 mps 753 mmHg 61%
    19:00 +9°C° 0 mm 1 mps 753 mmHg 64%
    20:00 +8°C° 0 mm 0 mps 753 mmHg 66%
    21:00 +8°C° 0 mm 1 mps 753 mmHg 67%
    22:00 +8°C° 0 mm 1 mps 753 mmHg 69%
    23:00 +7°C° 0 mm 1 mps 752 mmHg 70%

    2 February, Sunday

    Time Temperature Precipitation Wind Pressure Humidity
    00:00 +7°C° 0 mm 1 mps 752 mmHg 71%
    01:00 +7°C° 0 mm 1 mps 752 mmHg 73%
    02:00 +7°C° 0 mm 1 mps 752 mmHg 74%
    03:00 +6°C° 0 mm 1 mps 751 mmHg 75%
    04:00 +6°C° 0 mm 1 mps 751 mmHg 75%
    05:00 +5°C° 0 mm 2 mps 750 mmHg 76%
    06:00 +5°C° 0 mm 2 mps 750 mmHg 77%
    07:00 +5°C° 0 mm 2 mps 750 mmHg 79%
    08:00 +5°C° 0 mm 2 mps 750 mmHg 80%
    09:00 +5°C° 0 mm 3 mps 750 mmHg 74%
    10:00 +7°C° 0 mm 4 mps 750 mmHg 68%
    11:00 +10°C° 0 mm 4 mps 750 mmHg 61%
    12:00 +10°C° 0 mm 5 mps 750 mmHg 61%
    13:00 +10°C° 0 mm 6 mps 750 mmHg 61%
    14:00 +11°C° 0 mm 7 mps 750 mmHg 61%
    15:00 +12°C° 0 mm 5 mps 751 mmHg 61%
    16:00 +11°C° 0 mm 4 mps 751 mmHg 62%
    17:00 +11°C° 0 mm 3 mps 752 mmHg 62%
    18:00 +10°C° 0 mm 3 mps 752 mmHg 60%
    19:00 +10°C° 0 mm 3 mps 753 mmHg 58%
    20:00 +9°C° 0 mm 3 mps 753 mmHg 55%
    21:00 +8°C° 0 mm 3 mps 754 mmHg 56%
    22:00 +7°C° 0 mm 2 mps 754 mmHg 57%
    23:00 +7°C° 0 mm 2 mps 755 mmHg 58%

    3 February, Monday

    Time Temperature Precipitation Wind Pressure Humidity
    00:00 +6°C° 0 mm 2 mps 755 mmHg 60%
    01:00 +6°C° 0 mm 2 mps 755 mmHg 61%
    02:00 +4°C° 0 mm 3 mps 755 mmHg 63%
    03:00 +5°C° 0 mm 2 mps 755 mmHg 64%
    04:00 +5°C° 0 mm 2 mps 754 mmHg 65%
    05:00 +5°C° 0 mm 2 mps 754 mmHg 66%
    06:00 +4°C° 0 mm 2 mps 754 mmHg 68%
    07:00 +3°C° 0 mm 3 mps 754 mmHg 69%
    08:00 +3°C° 0 mm 3 mps 754 mmHg 71%
    09:00 +4°C° 0 mm 3 mps 754 mmHg 65%
    10:00 +6°C° 0 mm 4 mps 754 mmHg 60%
    11:00 +7°C° 0 mm 4 mps 754 mmHg 54%
    12:00 +8°C° 0 mm 5 mps 753 mmHg 52%
    13:00 +9°C° 0 mm 5 mps 753 mmHg 49%
    14:00 +11°C° 0 mm 6 mps 752 mmHg 47%
    15:00 +10°C° 0 mm 5 mps 752 mmHg 50%
    16:00 +11°C° 0 mm 4 mps 752 mmHg 53%
    17:00 +11°C° 0 mm 3 mps 752 mmHg 56%
    18:00 +11°C° 0 mm 4 mps 752 mmHg 59%
    19:00 +10°C° 0 mm 4 mps 752 mmHg 61%
    20:00 +9°C° 0 mm 5 mps 752 mmHg 64%
    21:00 +8°C° 0 mm 4 mps 753 mmHg 67%
    22:00 +9°C° 0 mm 3 mps 753 mmHg 70%
    23:00 +8°C° 0 mm 2 mps 753 mmHg 74%
    Show more